Zurück zum Katalog

INTELSAT 3-F4

AktivKommunikationGEO
NORAD 3947·PAYLOAD· XX

Gestartet May 22, 1969 von Cape Canaveral Space Force Station

Loading…

TLE

AktuellSource: Space-Track

Epoche: Sep 14, 2026, 21:05 UTC

1 03947U 69045A   26257.87858054 -.00000101  00000-0  00000-0 0  9997
2 03947   3.5079 288.6918 0021957  77.8290  36.6071  0.90044615 66776

Verfolge INTELSAT 3-F4 in Echtzeit mit AllMySat

Download on the App Store